Location: Choisy
(48.7685°N, 2.4187°E)
Time: 19:36:37
(UTC+00:00)

Envisat - Pass Details

Date: 01 March 2024
Orbit: 762 x 764 km, 98.3° (Epoch: 24 April)

Event Time Altitude Azimuth Distance (km) Brightness Sun altitude
Rises 05:19:18 0° 359° (N) 3,244 6.3 -12.7°
Reaches altitude 10° 05:22:52 10° 333° (NNW) 2,312 5.3 -12.1°
Maximum altitude 05:25:07 13° 307° (NW) 2,101 4.8 -11.7°
Enters shadow 05:26:06 12° 295° (WNW) 2,142 4.8 -11.6°
